VLG2GF LEBL-EDDS

Flight info

Callsign VLG2GF
Flight time 1h 24m
Altitude 30000
Route DALIN DCT PIVUS DCT DIBER DCT ADITA DCT MAXIR/N0441F340 DCT LUSOL DCT BODRU DCT OKTET DCT IRMAR DCT KINES DCT VANAS DCT MOBLO DCT LAMUR DCT KORED DCT BERSU N871 DITON T163 ZUE T125 ROMIR/N0392F220 T125 REUTL REUTL1W
Aircraft A320/M-SDE3FGHIRWY/LB1

Departure

Time 2026-05-05 15:28
Airport Josep Tarradellas Barcelona-El Prat Airport (LEBL)

Arrival

Time 2026-05-05 16:53
Airport Stuttgart Airport (EDDS)
Time Latitude Longitude Altitude Speed Heading
2026-05-05 14:51 41.29026 2.08051 21 ft 0 kts 335°
2026-05-05 15:15 41.29024 2.08052 19 ft 2 kts 336°
2026-05-05 15:15 41.29000 2.08066 21 ft 4 kts 338°
2026-05-05 15:15 41.28976 2.08080 20 ft 4 kts 328°
2026-05-05 15:15 41.28960 2.08099 22 ft 4 kts 265°
2026-05-05 15:16 41.28968 2.08126 20 ft 4 kts 245°
2026-05-05 15:16 41.28978 2.08159 20 ft 4 kts 246°
2026-05-05 15:16 41.28981 2.08167 20 ft 0 kts 245°
2026-05-05 15:21 41.28981 2.08166 20 ft 0 kts 245°
2026-05-05 15:21 41.28976 2.08153 21 ft 3 kts 245°
2026-05-05 15:21 41.28972 2.08142 21 ft 4 kts 244°
2026-05-05 15:22 41.28941 2.08120 20 ft 6 kts 153°
2026-05-05 15:22 41.28891 2.08156 18 ft 10 kts 154°
2026-05-05 15:22 41.28811 2.08204 16 ft 15 kts 156°
2026-05-05 15:22 41.28725 2.08233 17 ft 9 kts 178°
2026-05-05 15:23 41.28709 2.08287 18 ft 8 kts 63°
2026-05-05 15:23 41.28717 2.08311 18 ft 9 kts 64°
2026-05-05 15:23 41.28748 2.08399 21 ft 10 kts 65°
2026-05-05 15:23 41.28775 2.08478 22 ft 10 kts 65°
2026-05-05 15:24 41.28811 2.08579 19 ft 14 kts 65°
2026-05-05 15:24 41.28856 2.08712 17 ft 17 kts 66°
2026-05-05 15:24 41.28909 2.08870 18 ft 20 kts 65°
2026-05-05 15:24 41.28971 2.09047 17 ft 22 kts 65°
2026-05-05 15:25 41.29037 2.09244 19 ft 24 kts 65°
2026-05-05 15:25 41.29111 2.09458 19 ft 26 kts 65°
2026-05-05 15:25 41.29190 2.09688 17 ft 28 kts 65°
2026-05-05 15:25 41.29272 2.09926 17 ft 16 kts 64°
2026-05-05 15:26 41.29264 2.10061 15 ft 17 kts 113°
2026-05-05 15:26 41.29246 2.10119 18 ft 0 kts 111°
2026-05-05 15:26 41.29242 2.10134 18 ft 7 kts 111°
2026-05-05 15:26 41.29257 2.10260 17 ft 18 kts 72°
2026-05-05 15:27 41.29217 2.10297 16 ft 6 kts 207°
2026-05-05 15:27 41.29203 2.10270 17 ft 1 kts 245°
2026-05-05 15:27 41.29200 2.10262 17 ft 0 kts 245°
2026-05-05 15:27 41.29160 2.10145 21 ft 46 kts 245°
2026-05-05 15:28 41.28927 2.09470 19 ft 111 kts 245°
2026-05-05 15:28 41.28535 2.08326 27 ft 159 kts 244°
2026-05-05 15:28 41.28058 2.06944 530 ft 163 kts 238°
2026-05-05 15:28 41.27309 2.05872 1247 ft 160 kts 204°
2026-05-05 15:29 41.26196 2.05630 1822 ft 172 kts 182°
2026-05-05 15:29 41.24920 2.05633 2139 ft 194 kts 181°
2026-05-05 15:29 41.23496 2.05646 2526 ft 211 kts 181°
2026-05-05 15:29 41.22011 2.05661 3139 ft 216 kts 182°
2026-05-05 15:30 41.20505 2.05672 3883 ft 217 kts 182°
2026-05-05 15:30 41.18985 2.05679 4677 ft 219 kts 182°
2026-05-05 15:30 41.17475 2.05681 5427 ft 221 kts 182°
2026-05-05 15:30 41.15895 2.05638 5981 ft 234 kts 184°
2026-05-05 15:31 41.14243 2.05559 6654 ft 240 kts 185°
2026-05-05 15:31 41.12566 2.05473 7418 ft 242 kts 185°
2026-05-05 15:31 41.10875 2.05386 8226 ft 243 kts 185°
2026-05-05 15:31 41.09180 2.05301 9163 ft 244 kts 186°
2026-05-05 15:32 41.07479 2.05215 10022 ft 246 kts 186°
2026-05-05 15:32 41.05763 2.05130 10806 ft 248 kts 186°
2026-05-05 15:32 41.04036 2.05044 11596 ft 249 kts 186°
2026-05-05 15:32 41.02295 2.04983 12386 ft 252 kts 181°
2026-05-05 15:33 41.00565 2.05570 13144 ft 265 kts 158°
2026-05-05 15:33 40.99090 2.07172 13675 ft 292 kts 132°
2026-05-05 15:33 40.98165 2.09734 13857 ft 324 kts 114°
2026-05-05 15:33 40.97399 2.12653 13997 ft 347 kts 114°
2026-05-05 15:34 40.96601 2.15775 14130 ft 369 kts 113°
2026-05-05 15:34 40.95771 2.19052 14526 ft 379 kts 113°
2026-05-05 15:34 40.95106 2.22416 15049 ft 390 kts 101°
2026-05-05 15:34 40.95114 2.26048 15581 ft 402 kts 84°
2026-05-05 15:35 40.95960 2.29610 16094 ft 412 kts 64°
2026-05-05 15:35 40.97627 2.32715 16606 ft 417 kts 47°
2026-05-05 15:35 40.99598 2.35561 17152 ft 422 kts 46°
2026-05-05 15:35 41.01604 2.38436 17712 ft 426 kts 46°
2026-05-05 15:36 41.03629 2.41337 18261 ft 431 kts 46°
2026-05-05 15:36 41.05672 2.44275 18753 ft 435 kts 46°
2026-05-05 15:36 41.07734 2.47254 19253 ft 440 kts 46°
2026-05-05 15:36 41.09786 2.50225 19741 ft 445 kts 46°
2026-05-05 15:37 41.11884 2.53267 20239 ft 449 kts 46°
2026-05-05 15:37 41.14008 2.56355 20713 ft 453 kts 47°
2026-05-05 15:37 41.16144 2.59463 21181 ft 458 kts 47°
2026-05-05 15:37 41.18297 2.62602 21619 ft 462 kts 47°
2026-05-05 15:38 41.20467 2.65770 22049 ft 466 kts 47°
2026-05-05 15:38 41.22663 2.68980 22458 ft 470 kts 46°
2026-05-05 15:38 41.24874 2.72211 22910 ft 474 kts 46°
2026-05-05 15:38 41.27104 2.75469 23330 ft 478 kts 46°
2026-05-05 15:39 41.29322 2.78718 23695 ft 482 kts 46°
2026-05-05 15:39 41.31613 2.82080 24092 ft 486 kts 47°
2026-05-05 15:39 41.33862 2.85384 24474 ft 488 kts 47°
2026-05-05 15:39 41.36146 2.88740 24836 ft 492 kts 47°
2026-05-05 15:40 41.38457 2.92136 25177 ft 495 kts 47°
2026-05-05 15:40 41.40777 2.95550 25526 ft 499 kts 47°
2026-05-05 15:40 41.43114 2.98995 25859 ft 502 kts 47°
2026-05-05 15:40 41.45461 3.02465 26191 ft 506 kts 47°
2026-05-05 15:41 41.47824 3.05957 26490 ft 509 kts 47°
2026-05-05 15:41 41.49403 3.08289 26726 ft 511 kts 47°
2026-05-05 15:41 41.51790 3.11823 27078 ft 514 kts 47°
2026-05-05 15:41 41.54189 3.15383 27449 ft 518 kts 47°
2026-05-05 15:42 41.56608 3.18977 27788 ft 522 kts 47°
2026-05-05 15:42 41.59834 3.23782 28220 ft 526 kts 47°
2026-05-05 15:42 41.61491 3.26249 28445 ft 529 kts 47°
2026-05-05 15:42 41.63954 3.29919 28758 ft 532 kts 47°
2026-05-05 15:43 41.66437 3.33619 29066 ft 536 kts 47°
2026-05-05 15:43 41.68938 3.37346 29379 ft 539 kts 47°
2026-05-05 15:43 41.71444 3.41087 29781 ft 540 kts 47°
2026-05-05 15:43 41.73917 3.44785 29900 ft 538 kts 47°
2026-05-05 15:44 41.76403 3.48513 29904 ft 535 kts 47°
2026-05-05 15:44 41.81352 3.55952 29897 ft 534 kts 47°
2026-05-05 15:45 41.86287 3.63395 29898 ft 534 kts 47°
2026-05-05 15:45 41.91219 3.70846 29900 ft 534 kts 47°
2026-05-05 15:46 41.96142 3.78290 29916 ft 531 kts 48°
2026-05-05 15:46 42.01038 3.85713 29867 ft 530 kts 48°
2026-05-05 15:47 42.05938 3.93153 29878 ft 531 kts 46°
2026-05-05 15:47 42.08662 3.96479 29877 ft 527 kts 32°
2026-05-05 15:47 42.11765 3.99094 29874 ft 525 kts 27°
2026-05-05 15:48 42.18031 4.04165 29918 ft 525 kts 27°
2026-05-05 15:48 42.24255 4.09199 29920 ft 525 kts 27°
2026-05-05 15:49 42.30525 4.14283 29917 ft 525 kts 27°
2026-05-05 15:49 42.36778 4.19378 29914 ft 522 kts 27°
2026-05-05 15:50 42.42991 4.24461 29878 ft 522 kts 27°
2026-05-05 15:50 42.49175 4.29513 29891 ft 523 kts 27°
2026-05-05 15:51 42.55410 4.34624 29934 ft 523 kts 27°
2026-05-05 15:51 42.61633 4.39741 29936 ft 523 kts 27°
2026-05-05 15:52 42.67851 4.44863 29933 ft 522 kts 27°
2026-05-05 15:52 42.74055 4.49989 29930 ft 522 kts 28°
2026-05-05 15:53 42.80259 4.55117 29927 ft 521 kts 27°
2026-05-05 15:53 42.86431 4.60222 29886 ft 522 kts 27°
2026-05-05 15:54 42.92652 4.65386 29912 ft 523 kts 27°
2026-05-05 15:54 42.98864 4.70575 29924 ft 523 kts 28°
2026-05-05 15:55 43.05069 4.75773 29925 ft 523 kts 28°
2026-05-05 15:55 43.11281 4.80967 29925 ft 523 kts 28°
2026-05-05 15:56 43.17482 4.86167 29951 ft 522 kts 28°
2026-05-05 15:56 43.23652 4.91361 29946 ft 520 kts 28°
2026-05-05 15:57 43.29807 4.96553 29894 ft 519 kts 28°
2026-05-05 15:57 43.35921 5.01721 29951 ft 519 kts 28°
2026-05-05 15:58 43.42069 5.06932 29960 ft 518 kts 28°
2026-05-05 15:58 43.48200 5.12146 29961 ft 518 kts 28°
2026-05-05 15:59 43.54333 5.17379 29972 ft 518 kts 28°
2026-05-05 15:59 43.60460 5.22603 29941 ft 517 kts 28°
2026-05-05 16:00 43.66575 5.27837 29929 ft 517 kts 28°
2026-05-05 16:00 43.72682 5.33084 29947 ft 516 kts 29°
2026-05-05 16:01 43.78779 5.38332 29917 ft 515 kts 28°
2026-05-05 16:01 43.84820 5.43534 29914 ft 515 kts 28°
2026-05-05 16:02 43.90897 5.48778 29933 ft 515 kts 29°
2026-05-05 16:02 43.96982 5.54054 29925 ft 514 kts 29°
2026-05-05 16:03 44.03040 5.59311 29919 ft 513 kts 29°
2026-05-05 16:03 44.09088 5.64570 29937 ft 513 kts 29°
2026-05-05 16:04 44.15139 5.69859 29907 ft 513 kts 30°
2026-05-05 16:04 44.21181 5.75157 29905 ft 512 kts 29°
2026-05-05 16:05 44.27175 5.80413 29919 ft 511 kts 29°
2026-05-05 16:05 44.33214 5.85716 29938 ft 512 kts 30°
2026-05-05 16:06 44.39215 5.91002 29916 ft 512 kts 30°
2026-05-05 16:06 44.45249 5.96334 29921 ft 512 kts 30°
2026-05-05 16:07 44.51295 6.01690 29915 ft 513 kts 30°
2026-05-05 16:07 44.57335 6.07050 29910 ft 514 kts 30°
2026-05-05 16:08 44.63381 6.12419 29905 ft 514 kts 30°
2026-05-05 16:08 44.69415 6.17808 29918 ft 514 kts 30°
2026-05-05 16:09 44.75447 6.23208 29915 ft 513 kts 30°
2026-05-05 16:09 44.81431 6.28583 29920 ft 513 kts 30°
2026-05-05 16:10 44.87492 6.34034 29913 ft 513 kts 30°
2026-05-05 16:10 44.93487 6.39428 29903 ft 514 kts 29°
2026-05-05 16:11 44.99515 6.44863 29897 ft 514 kts 30°
2026-05-05 16:12 45.11557 6.55810 29901 ft 515 kts 30°
2026-05-05 16:13 45.26604 6.69511 29926 ft 513 kts 28°
2026-05-05 16:13 45.33033 6.73614 29932 ft 502 kts
2026-05-05 16:14 45.39762 6.75025 29931 ft 484 kts 352°
2026-05-05 16:14 45.46440 6.74624 29919 ft 479 kts 349°
2026-05-05 16:15 45.59791 6.73730 29942 ft 479 kts 350°
2026-05-05 16:16 45.73031 6.72815 29931 ft 477 kts 350°
2026-05-05 16:17 45.79700 6.72909 29955 ft 486 kts
2026-05-05 16:17 45.83017 6.73918 29949 ft 490 kts 12°
2026-05-05 16:18 45.92472 6.79748 29943 ft 492 kts 21°
2026-05-05 16:19 46.01812 6.85883 29944 ft 490 kts 21°
2026-05-05 16:19 46.11094 6.91975 29934 ft 488 kts 21°
2026-05-05 16:20 46.23384 7.00074 29940 ft 486 kts 22°
2026-05-05 16:22 46.38705 7.10251 29931 ft 483 kts 22°
2026-05-05 16:23 46.50843 7.18356 29905 ft 481 kts 22°
2026-05-05 16:23 46.59966 7.24491 29900 ft 481 kts 22°
2026-05-05 16:24 46.66048 7.28578 29897 ft 481 kts 22°
2026-05-05 16:25 46.75160 7.34702 29889 ft 480 kts 22°
2026-05-05 16:25 46.83998 7.41387 29909 ft 481 kts 35°
2026-05-05 16:26 46.88759 7.48224 29903 ft 481 kts 52°
2026-05-05 16:26 46.92925 7.55897 29879 ft 481 kts 51°
2026-05-05 16:27 46.97100 7.63567 29889 ft 480 kts 52°
2026-05-05 16:27 47.01254 7.71231 29889 ft 480 kts 52°
2026-05-05 16:28 47.04696 7.77615 29883 ft 480 kts 52°
2026-05-05 16:28 47.08824 7.85303 29881 ft 479 kts 52°
2026-05-05 16:29 47.12938 7.92997 29887 ft 478 kts 53°
2026-05-05 16:29 47.16554 8.01153 29893 ft 475 kts 59°
2026-05-05 16:30 47.20066 8.09363 29893 ft 474 kts 59°
2026-05-05 16:30 47.23562 8.17584 29886 ft 473 kts 59°
2026-05-05 16:31 47.27034 8.25794 29881 ft 472 kts 59°
2026-05-05 16:31 47.30628 8.33907 29858 ft 473 kts 52°
2026-05-05 16:32 47.34977 8.41176 29871 ft 472 kts 49°
2026-05-05 16:32 47.39333 8.48423 29906 ft 471 kts 49°
2026-05-05 16:33 47.43672 8.55680 29905 ft 471 kts 50°
2026-05-05 16:33 47.47988 8.62891 29907 ft 471 kts 50°
2026-05-05 16:34 47.52310 8.70136 29916 ft 469 kts 50°
2026-05-05 16:34 47.56617 8.77385 29713 ft 467 kts 50°
2026-05-05 16:35 47.58748 8.81024 29421 ft 466 kts 53°
2026-05-05 16:35 47.60570 8.84970 29115 ft 465 kts 60°
2026-05-05 16:35 47.62270 8.89051 28826 ft 465 kts 60°
2026-05-05 16:35 47.63962 8.93121 28539 ft 463 kts 60°
2026-05-05 16:36 47.65642 8.97160 27951 ft 458 kts 60°
2026-05-05 16:36 47.67306 9.01159 27346 ft 453 kts 60°
2026-05-05 16:36 47.68958 9.05125 26742 ft 448 kts 60°
2026-05-05 16:36 47.70592 9.09049 26146 ft 446 kts 60°
2026-05-05 16:37 47.72214 9.12949 25537 ft 443 kts 60°
2026-05-05 16:37 47.73827 9.16820 24926 ft 440 kts 60°
2026-05-05 16:37 47.75439 9.20673 24311 ft 437 kts 58°
2026-05-05 16:37 47.77304 9.24152 23726 ft 435 kts 46°
2026-05-05 16:38 47.79660 9.27036 23096 ft 433 kts 33°
2026-05-05 16:38 47.82280 9.29073 22536 ft 428 kts 21°
2026-05-05 16:38 47.85117 9.30287 22013 ft 422 kts
2026-05-05 16:38 47.88022 9.30693 21495 ft 416 kts
2026-05-05 16:39 47.90907 9.30911 20993 ft 413 kts
2026-05-05 16:39 47.93767 9.31123 20497 ft 409 kts
2026-05-05 16:39 47.96597 9.31331 19984 ft 405 kts
2026-05-05 16:39 47.99404 9.31539 19471 ft 402 kts
2026-05-05 16:40 48.02189 9.31749 18945 ft 400 kts
2026-05-05 16:40 48.04966 9.31961 18422 ft 397 kts
2026-05-05 16:40 48.07717 9.32171 17840 ft 396 kts
2026-05-05 16:40 48.10427 9.32377 17286 ft 392 kts
2026-05-05 16:41 48.13138 9.32586 16727 ft 389 kts
2026-05-05 16:41 48.15773 9.32788 16186 ft 385 kts
2026-05-05 16:41 48.18437 9.33051 15643 ft 383 kts
2026-05-05 16:41 48.21009 9.34093 15119 ft 383 kts 21°
2026-05-05 16:42 48.23431 9.35742 14617 ft 381 kts 24°
2026-05-05 16:42 48.25822 9.37437 14133 ft 379 kts 24°
2026-05-05 16:42 48.28187 9.39137 13665 ft 376 kts 24°
2026-05-05 16:42 48.30533 9.40834 13139 ft 373 kts 24°
2026-05-05 16:43 48.32867 9.42531 12615 ft 370 kts 24°
2026-05-05 16:43 48.35178 9.44217 12093 ft 368 kts 24°
2026-05-05 16:43 48.37469 9.45895 11564 ft 364 kts 24°
2026-05-05 16:43 48.39707 9.47542 10982 ft 362 kts 24°
2026-05-05 16:44 48.41963 9.49214 10427 ft 360 kts 24°
2026-05-05 16:44 48.44187 9.50862 9867 ft 350 kts 24°
2026-05-05 16:44 48.46325 9.52458 9397 ft 335 kts 24°
2026-05-05 16:44 48.48374 9.53996 8904 ft 322 kts 22°
2026-05-05 16:45 48.50437 9.54976 8488 ft 303 kts
2026-05-05 16:45 48.52495 9.55463 8109 ft 297 kts
2026-05-05 16:45 48.54536 9.55893 7729 ft 295 kts
2026-05-05 16:45 48.56566 9.56308 7363 ft 293 kts
2026-05-05 16:46 48.58598 9.56716 6995 ft 295 kts
2026-05-05 16:46 48.60633 9.57121 6632 ft 296 kts
2026-05-05 16:46 48.62675 9.57525 6264 ft 296 kts
2026-05-05 16:46 48.64714 9.57920 5880 ft 295 kts
2026-05-05 16:47 48.66746 9.58306 5448 ft 295 kts
2026-05-05 16:47 48.68751 9.58683 5059 ft 284 kts
2026-05-05 16:47 48.70678 9.58908 4649 ft 271 kts 351°
2026-05-05 16:47 48.72424 9.58099 4215 ft 257 kts 326°
2026-05-05 16:48 48.73679 9.56400 3998 ft 235 kts 301°
2026-05-05 16:48 48.74353 9.54300 4012 ft 212 kts 282°
2026-05-05 16:48 48.74508 9.52170 3997 ft 195 kts 264°
2026-05-05 16:48 48.74251 9.50222 4000 ft 185 kts 252°
2026-05-05 16:49 48.73904 9.48367 3998 ft 182 kts 253°
2026-05-05 16:49 48.73562 9.46533 4012 ft 176 kts 252°
2026-05-05 16:49 48.73231 9.44764 3901 ft 172 kts 253°
2026-05-05 16:49 48.72908 9.43036 3708 ft 169 kts 252°
2026-05-05 16:50 48.72587 9.41325 3507 ft 170 kts 251°
2026-05-05 16:50 48.72249 9.39531 3268 ft 183 kts 252°
2026-05-05 16:50 48.71896 9.37643 3006 ft 186 kts 253°
2026-05-05 16:50 48.71547 9.35778 2771 ft 181 kts 253°
2026-05-05 16:51 48.71232 9.34099 2546 ft 153 kts 253°
2026-05-05 16:51 48.70948 9.32589 2353 ft 143 kts 252°
2026-05-05 16:51 48.70679 9.31171 2160 ft 142 kts 253°
2026-05-05 16:51 48.70398 9.29725 1968 ft 144 kts 253°
2026-05-05 16:52 48.70115 9.28256 1747 ft 147 kts 254°
2026-05-05 16:52 48.69834 9.26750 1550 ft 150 kts 254°
2026-05-05 16:52 48.69560 9.25216 1372 ft 151 kts 254°
2026-05-05 16:52 48.69274 9.23710 1206 ft 140 kts 255°
2026-05-05 16:53 48.69049 9.22517 1227 ft 94 kts 253°
2026-05-05 16:53 48.68935 9.21873 1244 ft 25 kts 268°
2026-05-05 16:53 48.68964 9.21614 1261 ft 24 kts 285°
2026-05-05 16:53 48.68984 9.21490 1255 ft 9 kts 283°
2026-05-05 16:54 48.68996 9.21411 1264 ft 7 kts 283°
2026-05-05 16:54 48.69001 9.21351 1260 ft 5 kts 270°
2026-05-05 16:54 48.68990 9.21279 1267 ft 11 kts 253°
2026-05-05 16:54 48.68968 9.21165 1267 ft 11 kts 253°
2026-05-05 16:55 48.68946 9.21053 1272 ft 11 kts 255°
2026-05-05 16:55 48.68926 9.20944 1269 ft 11 kts 254°
2026-05-05 16:55 48.68906 9.20839 1272 ft 10 kts 253°
2026-05-05 16:55 48.68886 9.20736 1274 ft 10 kts 254°
2026-05-05 16:56 48.68867 9.20634 1277 ft 10 kts 254°
2026-05-05 16:56 48.68849 9.20536 1279 ft 10 kts 254°
2026-05-05 16:56 48.68831 9.20445 1283 ft 9 kts 253°
2026-05-05 16:56 48.68812 9.20348 1284 ft 9 kts 253°
2026-05-05 16:57 48.68794 9.20256 1286 ft 9 kts 253°
2026-05-05 16:57 48.68770 9.20122 1288 ft 17 kts 254°
2026-05-05 16:57 48.68780 9.19972 1294 ft 13 kts 310°
2026-05-05 16:57 48.68842 9.19896 1299 ft 10 kts 340°
2026-05-05 16:58 48.68891 9.19852 1303 ft 7 kts 291°
2026-05-05 16:58 48.68884 9.19792 1305 ft 6 kts 253°
2026-05-05 16:58 48.68873 9.19731 1307 ft 10 kts 254°
2026-05-05 16:58 48.68850 9.19612 1309 ft 12 kts 254°
2026-05-05 16:59 48.68827 9.19486 1312 ft 12 kts 255°
2026-05-05 16:59 48.68805 9.19437 1312 ft 4 kts 186°
2026-05-05 16:59 48.68756 9.19459 1310 ft 5 kts 164°
2026-05-05 16:59 48.68749 9.19462 1309 ft 0 kts 164°